EW5069 Weather Reports


Display with metric or nautical units.
time (UTC)temp
F
wind
direction
speed
MPH
gust
MPH
rain 1hr
in
rain 24hr
in
rain mn
in
humidity
%
barometer
mb
20260505023027 67 360 0.0 0.0 0.00 0.00 0.00 60 1001.9
20260505021526 67 360 0.0 0.0 0.00 0.00 0.00 60 1002.1
20260505020029 67 360 0.0 0.0 0.00 0.00 0.00 59 1002.0
20260505014527 67 360 0.0 0.0 0.00 0.00 0.00 58 1001.8
20260505013021 68 360 0.0 0.0 0.00 0.00 0.00 56 1001.6
20260505011529 69 175 0.0 0.0 0.00 0.00 0.00 54 1001.5
20260505010017 70 188 0.0 0.0 0.00 0.00 0.00 53 1001.5
20260505004534 70 360 0.0 0.0 0.00 0.00 0.00 53 1001.5
20260505003017 71 360 0.0 0.0 0.00 0.00 0.00 52 1001.4
20260505001517 71 360 0.0 0.0 0.00 0.00 0.00 51 1001.1
20260505000031 71 360 0.0 0.0 0.00 0.00 0.00 52 1001.1
20260504234513 72 360 0.0 0.0 0.00 0.00 0.00 51 1000.9
20260504233010 72 360 0.0 0.0 0.00 0.00 0.00 56 1001.3
20260504231508 72 190 0.0 0.0 0.00 0.00 0.00 58 1001.6
20260504230006 71 360 0.0 0.0 0.00 0.00 0.00 62 1002.0
20260504224506 72 360 0.0 0.0 0.00 0.00 0.00 62 1002.2
20260504223003 70 360 0.0 0.0 0.00 0.00 0.00 63 1002.3
20260504221504 72 194 0.0 0.0 0.00 0.00 0.00 62 1002.5
20260504220104 70 360 0.0 0.0 0.00 0.00 0.00 60 1002.6
20260504214600 71 188 0.0 0.0 0.00 0.00 0.00 58 1002.6
20260504213105 71 360 0.0 0.0 0.00 0.00 0.00 59 1002.9
20260504211607 70 360 0.0 0.0 0.00 0.00 0.00 58 1002.9
20260504210056 71 360 0.0 0.0 0.00 0.00 0.00 55 1003.0
20260504204601 72 360 0.0 0.0 0.00 0.00 0.00 53 1002.9
20260504203102 72 360 0.0 0.0 0.00 0.00 0.00 54 1002.9
20260504201552 72 360 0.0 0.0 0.00 0.00 0.00 56 1003.0
20260504200050 72 191 0.0 0.0 0.00 0.00 0.00 57 1003.1
20260504194549 72 360 0.0 0.0 0.00 0.09 0.00 55 1003.3
20260504193047 72 188 0.0 0.0 0.00 0.09 0.00 55 1003.5
20260504191543 72 360 0.0 0.0 0.00 0.09 0.00 57 1003.6
20260504190041 73 360 0.0 0.0 0.00 0.09 0.00 56 1003.8
20260504184540 73 360 0.0 0.0 0.00 0.10 0.00 54 1003.6
20260504183039 73 360 0.0 0.0 0.00 0.10 0.00 55 1003.6
20260504181535 72 360 0.0 0.0 0.00 0.10 0.00 57 1003.7
20260504180036 72 360 0.0 0.0 0.00 0.10 0.00 59 1003.8
20260504174532 71 360 0.0 0.0 0.00 0.10 0.00 58 1003.7
20260504173029 71 360 0.0 0.0 0.00 0.10 0.00 60 1003.8
20260504171525 71 360 0.0 0.0 0.00 0.10 0.00 61 1004.0
20260504081530 50 360 0.0 0.0 0.00 0.10 0.00 79 1007.5
20260504050010 51 360 0.0 0.0 0.00 0.10 0.00 76 1009.2
20260504044506 51 360 0.0 0.0 0.00 0.10 0.00 76 1009.3
20260504043006 51 360 0.0 0.0 0.00 0.10 0.00 76 1009.4
20260504041502 52 360 0.0 0.0 0.00 0.10 0.00 76 1009.6
20260504034558 51 360 0.0 0.0 0.00 0.10 0.10 77 1009.8
20260504033057 51 360 0.0 0.0 0.00 0.10 0.10 78 1010.0
20260504031555 49 360 0.0 0.0 0.00 0.10 0.10 82 1010.1
20260504030054 49 164 0.0 0.0 0.00 0.10 0.10 83 1010.2
20260504024609 49 360 0.0 0.0 0.00 0.10 0.10 82 1010.3